TimeMDT,TemperatureF,Dew PointF,Humidity,Sea Level PressureIn,VisibilityMPH,Wind Direction,Wind SpeedMPH,Gust SpeedMPH,PrecipitationIn,Events,Conditions,WindDirDegrees,DateUTC
12:53 AM,79.0,44.1,29,29.83,10.0,South,8.1,-,N/A,,Clear,190,2013-07-14 06:53:00
1:53 AM,81.0,44.1,27,29.82,10.0,South,10.4,-,N/A,,Clear,190,2013-07-14 07:53:00
2:53 AM,80.1,45.0,29,29.82,10.0,South,6.9,-,N/A,,Clear,190,2013-07-14 08:53:00
3:53 AM,79.0,44.1,29,29.82,10.0,South,5.8,-,N/A,,Clear,170,2013-07-14 09:53:00
4:53 AM,75.9,44.1,32,29.82,10.0,SSW,6.9,-,N/A,,Clear,200,2013-07-14 10:53:00
5:53 AM,75.9,44.1,32,29.82,10.0,SSW,6.9,-,N/A,,Clear,200,2013-07-14 11:53:00
6:53 AM,73.9,45.0,35,29.83,10.0,North,4.6,-,N/A,,Clear,10,2013-07-14 12:53:00
7:53 AM,78.1,46.9,33,29.84,10.0,NNE,8.1,-,N/A,,Clear,20,2013-07-14 13:53:00
8:53 AM,82.9,48.0,29,29.84,10.0,NNE,5.8,-,N/A,,Clear,30,2013-07-14 14:53:00
9:53 AM,90.0,46.0,22,29.81,10.0,SE,5.8,-,N/A,,Clear,140,2013-07-14 15:53:00
10:53 AM,95.0,39.0,14,29.80,10.0,SE,12.7,-,N/A,,Clear,130,2013-07-14 16:53:00
11:53 AM,96.1,37.0,13,29.79,10.0,South,5.8,-,N/A,,Clear,180,2013-07-14 17:53:00
12:53 PM,97.0,37.9,13,29.77,10.0,Variable,6.9,16.1,N/A,,Clear,0,2013-07-14 18:53:00
1:53 PM,100.0,37.0,11,29.74,10.0,ESE,9.2,19.6,N/A,,Clear,110,2013-07-14 19:53:00
2:53 PM,100.0,37.0,11,29.71,10.0,East,10.4,18.4,N/A,,Clear,90,2013-07-14 20:53:00
3:53 PM,99.0,37.0,12,29.69,10.0,ESE,9.2,20.7,N/A,,Clear,110,2013-07-14 21:53:00
4:53 PM,98.1,36.0,11,29.67,10.0,SSE,6.9,16.1,N/A,,Clear,150,2013-07-14 22:53:00
5:53 PM,99.0,37.0,12,29.65,10.0,ENE,4.6,-,N/A,,Clear,60,2013-07-14 23:53:00
6:53 PM,98.1,37.0,12,29.65,10.0,SSE,9.2,16.1,N/A,,Clear,150,2013-07-15 00:53:00
7:53 PM,95.0,37.0,13,29.65,10.0,SSE,5.8,-,N/A,,Clear,150,2013-07-15 01:53:00
8:53 PM,90.0,37.0,15,29.66,10.0,SSE,4.6,-,N/A,,Clear,160,2013-07-15 02:53:00
9:53 PM,91.0,37.9,15,29.69,10.0,WNW,8.1,-,N/A,,Partly Cloudy,290,2013-07-15 03:53:00
10:15 PM,84.2,55.4,37,29.95,1.8,NE,19.6,32.2,N/A,,Haze,50,2013-07-15 04:15:00
10:20 PM,82.4,55.4,39,29.95,1.5,NE,23.0,31.1,N/A,,Haze,50,2013-07-15 04:20:00
10:49 PM,78.8,55.4,44,29.98,2.0,ENE,24.2,38.0,N/A,,Haze,60,2013-07-15 04:49:00
10:53 PM,78.1,55.9,46,29.79,2.0,ENE,23.0,38.0,N/A,,Haze,70,2013-07-15 04:53:00
11:18 PM,75.2,55.4,50,29.99,3.0,ENE,24.2,31.1,N/A,,Haze,70,2013-07-15 05:18:00
11:35 PM,75.2,55.4,50,30.02,3.0,NE,17.3,28.8,N/A,,Haze,50,2013-07-15 05:35:00
11:53 PM,75.0,55.9,51,29.84,4.0,NE,17.3,24.2,N/A,,Haze,50,2013-07-15 05:53:00